{"data":{"norad_id":66159,"epoch":"2026-09-20T22:03:39.834720Z","epoch_age_seconds":64172,"freshness":"FRESH","line1":"1 66159U 25240P   26263.91921105  .00021030  00000+0  63271-3 0  9994","line2":"2 66159  53.1530 232.1097 0002923  93.0245 267.1092 15.34352772 51933","mean_motion":15.34352772,"eccentricity":0.0002923,"inclination_deg":53.153,"raan_deg":232.1097,"arg_perigee_deg":93.0245,"mean_anomaly_deg":267.1092,"bstar":0.00063271,"rev_number":5193,"period_min":93.850646753353,"perigee_km":460.84399674265,"apogee_km":464.84323401039,"semimajor_km":6840.9806153765,"source":"CELESTRAK","updated_at":"2026-09-21T09:00:35.814964Z"}}